Zurück zum Katalog

STARLINK-33857

AktivKommunikationVLEO
NORAD 64195·PAYLOAD·🇺🇸 United States

Gestartet May 28, 2025 von Cape Canaveral Space Force Station

Loading…

Nächste Überflüge (nächste 24 Stunden)

TLE

AktuellSource: CelesTrak SupGP

Epoche: Sep 14, 2026, 20:48 UTC

1 64195C 25113AB  26257.86715278  .00011088  00000+0  35667-3 0  2577
2 64195  53.1576 291.4947 0001262  85.3408 218.6941 15.31688085    16

Verfolge STARLINK-33857 in Echtzeit mit AllMySat

Download on the App Store